www.pogodaiklimat.ru

Погода и климат >> Архив погоды >> Беларусь >> Пружаны


ПОГОДА в Пружанах

  • Прогноз погоды в Пружанах
  • Монитор погоды в Пружанах

АРХИВ ПОГОДЫ в Пружанах

Время (UTC), дата Ветер
(напр.,м/с)
 
Видим.   Явления Облачность Т
(С)
Тd
(С)
f
(%)
Тe
(С)
Тes
(С)
Комфортность P
(гПа)
Po
(гПа)
Тmin
(С)
Tmax
(С)
R
(мм)
R24
(мм)
S
(см)
18 14.05 С 3 20 км 10/8 600 м
[Sc Ac und]
+12.2 +8.9 80 +11 +11 1022.0 1001.8 +14.7
03 15.05 С 4 10 км н/о +10.9 +10.0 94 +8 +8 1020.0 999.8 +10.8
06 15.05 СВ 4 7000 м слаб. ливневой дождь 10/10 210 м
[Cb calv]
+10.6 +10.4 99 +8 +8 1019.0 998.8 +10.0 12
09 15.05 СВ 5 8000 м слаб. ливневой дождь 10/10 240 м
[Cb calv]
+11.8 +11.6 99 +9 +9 1018.0 997.9
12 15.05 СВ 6-10
{11}
8000 м слаб. ливневой дождь 10/10 330 м
[Cb calv]
+13.6 +12.8 95 +11 +11 1018.0 998.0
15 15.05 СВ 5
{10}
15 км в посл. час ливневой дождь 10/10 720 м
[Cb calv]
+15.0 +13.7 92 +14 +14 1017.0 997.1
18 15.05 СВ 4 15 км {ливн. осадки} 10/6 600 м
[Cb calv Ac und]
+15.2 +13.9 92 +14 +14 1017.0 997.1 +16.5 11
03 16.05 В 6 2300 м н/о +14.0 +13.8 99 +12 +12 1015.0 995.1 +14.0
06 16.05 ЮВ 5
{10}
15 км 10/10 330 м
[St]
+14.7 +13.6 93 +13 +13 1016.0 996.1 +13.5 11
09 16.05 ЮВ 4 20 км 10/6 600 м
[Cb calv Ac und]
+16.9 +13.8 82 +16 +16 1017.0 997.3
12 16.05 ЮВ 6 20 км 10/6 600 м
[Cb calv Ac As]
+18.4 +12.4 68 +18 +18 1017.0 997.3
15 16.05 ЮВ 5 8000 м слаб. ливневой дождь 10/10 270 м
[Cb calv]
+15.7 +14.6 93 +14 +14 1017.0 997.2
18 16.05 В 5 8000 м слаб. ливневой дождь 10/10 210 м
[Cb calv]
+15.5 +14.5 94 +14 +14 1017.0 997.2 +19.6 5
03 17.05 В 5
{12}
10 км н/о +15.0 +14.4 96 +13 +14 1014.0 994.2 +14.9
06 17.05 ЮВ 5
{12}
15 км 10/10 330 м
[St]
+15.6 +14.6 94 +14 +14 1014.0 994.2 +14.5 5
09 17.05 ЮВ 4 20 км 10/10 630 м
[Sc]
+17.9 +14.8 82 +18 +18 1014.0 994.4
12 17.05 В 5 20 км 10/10 630 м
[Cb calv]
+18.6 +16.4 87 +19 +19 1015.0 995.4
15 17.05 В 4 20 км 10/4 600 м
[Cb calv Ci fib]
+20.4 +17.0 81 +24 +24 комфорт 1014.0 994.6
18 17.05 СВ 2 20 км 10/3 600 м
[Cb calv Ci fib]
+19.6 +17.4 87 +23 +23 комфорт 1014.0 994.5 +20.9
03 18.05 В 4 10 км н/о +16.5 +15.2 92 +16 +16 1015.0 995.3 +16.2
06 18.05 СЗ 2
{13}
20 км в посл. час ливневой дождь 10/3 600 м
[Cb calv Ac und]
+16.3 +15.2 93 +16 +16 1013.0 993.3 +15.7 5
09 18.05 В 5 20 км {ливн. осадки} 10/4 600 м
[Cb calv Ac As Ci fib]
+19.8 +17.2 85 +22 +30 комфорт 1014.0 994.5
12 18.05 В 3
{11}
20 км {гроза, ливн. осадки} 10/3 1000 м
[Cb calv Ci fib]
+20.6 +17.2 81 +24 +24 комфорт 1013.0 993.6
15 18.05 ЮВ 5 20 км {ливн. осадки} 10/3 600 м
[Cb calv Ac As Ci fib]
+23.0 +17.0 69 +28 +28 душно 1011.0 991.8
18 18.05 В 2
{10}
20 км {ливн. осадки} 10/4 600 м
[Cb calv Ci fib]
+20.6 +17.0 80 +25 +25 комфорт 1012.0 992.6 +23.4 10
06 19.05 ЮВ 4 20 км 4/0
[Ac trans Cc]
+16.8 +10.6 67 +16 +19 1011.0 991.3 +13.2 7
09 19.05 В 3 20 км 9/3 600 м
[Cb calv Ac As]
+18.5 +11.8 65 +19 +19 1012.0 992.4
12 19.05 ЮВ 4 20 км {ливн. осадки} 10/3 600 м
[Cb calv Ac As Cs]
+20.1 +10.8 55 +22 +22 комфорт 1012.0 992.5
15 19.05 ЮВ 5 20 км 4/1 600 м
[Cb calv Ac cast Cc]
+21.2 +13.9 63 +24 +26 комфорт 1011.0 991.7
18 19.05 В 2 20 км 9/3 600 м
[Cb calv Ac trans Ci fib]
+19.4 +14.6 74 +22 +22 комфорт 1011.0 991.5 +21.3 0.0
06 20.05 В 5 20 км 6/0
[Ac trans Cc]
+18.0 +11.3 65 +18 +19 1010.0 990.5 +15.5
09 20.05 В 6 20 км 3/0
[Ac cast Cc]
+20.8 +14.9 69 +24 +28 комфорт 1010.0 990.7
12 20.05 ЮВ 6
{10}
20 км 10/6 1000 м
[Cb calv Ci fib]
+24.6 +15.8 58 +28 +28 душно 1009.0 989.9
15 20.05 н/о 989.8
18 20.05 ЮВ 4
{10}
10 км 10 баллов +22.2 +15.5 66 +26 +26 душно 1007.0 987.8 +26.1 1
06 21.05 В 4 10 км 10 баллов +17.7 +14.6 82 +17 +17 1007.0 987.5 +15.1 0.3
09 21.05 В 4 10 км 10 баллов +20.5 +15.5 73 +23 +23 комфорт 1007.0 987.7
12 21.05 В 5
{11}
10 км 10 баллов +21.1 +14.3 65 +24 +24 комфорт 1006.0 986.8
15 21.05 ЮВ 6
{11}
10 км 10 баллов +21.1 +15.2 69 +24 +24 комфорт 1005.0 985.8

 

Местоположение метеостанции Пружаны (Брестская область, Беларусь): широта 52.55 долгота 24.49 высота над уровнем моря 167 м.

В архиве по умолчанию представлена погода в Пружанах за последнюю неделю. Архивные данные за месяц целиком и за предыдущие месяцы, начиная с января 2011 года, Вы можете получить, выбрав интересующий диапазон дат из раскрывающегося списка и нажав кнопку "Ввод!".


*Определитесь, кто Вы:
робот инопланетянин человек

Внимание! Время в таблицах - всемирное. Для получения местного времени необходимо прибавить поправку, которая равна 3 ч.

Смотрите также архив погоды в соседних городах и на ближайших метеорологических станциях:

Погода в Дрогичине (Брестская область, Беларусь) (57 км)
Погода в Ивацевичах (Брестская область, Беларусь) (61 км)
Погода в Волковыске (Гродненская область, Беларусь) (69 км)
Погода в Бресте (Брестская область, Беларусь) (72 км)
Погода в Высоком (Брестская область, Беларусь) (77 км)
Погода в Тересполе (Польша) (80 км)
Погода в Белостоке (Польша) (108 км)
Погода в Любешове (Волынская область, Украина) (111 км)
Погода в Пинске (Брестская область, Беларусь) (117 км)
Погода в Барановичах (Брестская область, Беларусь) (119 км)

Пояснения к столбцам:

Ветер - указаны скорость ветра в м/с - средняя за 10 мин, порывы в срок и между сроками (в фигурных скобках) и направление, откуда дует ветер: С - северный, СВ - северо-восточный, В - восточный, ЮВ - юго-восточный, Ю - южный, ЮЗ - юго-западный, З - западный, СЗ - северо-западный.
Видимость - горизонтальная дальность видимости в метрах или километрах. При видимости от 1 до 10 км при отсутствии осадков обычно наблюдается дымка, при ухудшении видимости до 1 км и менее - туман. В сухую погоду видимость может ухудшаться дымом, пылью или мглою.
Явления - указаны атмосферные явления, наблюдавшиеся в срок или в последний час перед сроком; фигурными скобками обозначены явления, наблюдавшиеся между сроками (за 1-3 часа до срока); квадратными скобками обозначены град или гололедные отложения с указанием их диаметра в мм.
Облачность - указаны через наклонную черту общая и нижняя облачность в баллах и высота нижней границы облаков в метрах; квадратными скобками обозначены формы облаков: Ci - перистые, Cs - перисто-слоистые, Cc - перисто-кучевые, Ac - высококучевые, As - высокослоистые, Sc - слоисто-кучевые, Ns - слоисто-дождевые, Cu - кучевые, Cb - кучево-дождевые. Подробнее классификацию облаков см. в Атласе облаков (PDF).
T - Температура воздуха - температура, измеренная на высоте 2 м над землей.
Td - Температура точки росы - температура, при понижении до которой содержащийся в воздухе водяной пар достигнет насыщения.
f - Относительная влажность воздуха - влажноcть воздуха, измеренная на высоте 2 м над землей.
Te - Эффективная температура - температура, которую ощущает одетый по сезону человек в тени. Характеристика душности погоды. При расчете учитывается влияние влажности воздуха и скорости ветра на теплоощущения человека.
Tes - Эффективная температура на солнце - температура, которую ощущает человек, с поправкой на солнечный нагрев. Характеристика знойности погоды. Зависит от высоты солнца над горизонтом, облачности и скорости ветра. Ночью, в пасмурную погоду, а также при ветре 12 м/с и более поправка равна нулю.
P - Атмосферное давление - приведенное к уровню моря атмосферное давление.
Po - Атмосферное давление - измеренное на уровне метеостанции атмосферное давление.
Tmin - Минимальная температура - минимум температуры воздуха на высоте 2 м над землей.
Tmax - Максимальная температура - максимум температуры воздуха на высоте 2 м над землей.
R - Количество осадков - Количество выпавших осадков за период времени, мм. При наведении курсора мыши на число - период времени, за который выпало указанное количество осадков.
R24 - Количество осадков - Количество выпавших осадков за 24 часа, мм.
S - Снежный покров - Высота снежного покрова, см. При наведении курсора мыши на число - состояние снежного покрова и степень покрытия местности в баллах.